• In Deutschland
  • Länderverzeichnis
  • Für 7 Tage
  • Wassertemperatur
  • Satellitenkarten
  • Wetterkarte
  • Widgets
  • user-avatar
    Anmelden

    Stündliche Wetter Völklingen

    Heute, 25 Juni, Montag

    Zeit Temperatur Niederschläge Wind Luftdruck Luftfeuchtigkeit
    00:00 +10°C° 0 mm 2 m/S 745 mmHg 94%
    01:00 +10°C° 0 mm 2 m/S 745 mmHg 94%
    02:00 +11°C° 0 mm 1 m/S 745 mmHg 95%
    03:00 +11°C° 0 mm 1 m/S 745 mmHg 95%
    04:00 +12°C° 0 mm 2 m/S 745 mmHg 93%
    05:00 +13°C° 0 mm 2 m/S 745 mmHg 91%
    06:00 +14°C° 0 mm 2 m/S 745 mmHg 88%
    07:00 +15°C° 0 mm 2 m/S 745 mmHg 84%
    08:00 +16°C° 0 mm 3 m/S 745 mmHg 79%
    09:00 +17°C° 0 mm 3 m/S 746 mmHg 75%
    10:00 +18°C° 0 mm 3 m/S 746 mmHg 73%
    11:00 +18°C° 0 mm 3 m/S 746 mmHg 71%
    12:00 +19°C° 0 mm 3 m/S 746 mmHg 69%
    13:00 +19°C° 0 mm 3 m/S 746 mmHg 69%
    14:00 +19°C° 0 mm 3 m/S 745 mmHg 68%
    15:00 +20°C° 0 mm 3 m/S 745 mmHg 68%
    16:00 +20°C° 0 mm 3 m/S 745 mmHg 71%
    17:00 +19°C° 0 mm 2 m/S 745 mmHg 74%
    18:00 +19°C° 0 mm 2 m/S 745 mmHg 78%
    19:00 +17°C° 0 mm 2 m/S 745 mmHg 82%
    20:00 +16°C° 0 mm 1 m/S 745 mmHg 86%
    21:00 +14°C° 0 mm 1 m/S 746 mmHg 90%
    22:00 +14°C° 0 mm 1 m/S 746 mmHg 90%
    23:00 +14°C° 0 mm 1 m/S 746 mmHg 91%

    Morgen, 26 Juni, Dienstag

    Zeit Temperatur Niederschläge Wind Luftdruck Luftfeuchtigkeit
    00:00 +13°C° 0 mm 1 m/S 746 mmHg 92%
    01:00 +13°C° 0 mm 1 m/S 746 mmHg 92%
    02:00 +13°C° 0 mm 1 m/S 745 mmHg 93%
    03:00 +12°C° 0 mm 1 m/S 745 mmHg 94%
    04:00 +13°C° 0 mm 1 m/S 745 mmHg 91%
    05:00 +15°C° 0 mm 1 m/S 745 mmHg 88%
    06:00 +16°C° 0 mm 2 m/S 746 mmHg 85%
    07:00 +17°C° 0 mm 2 m/S 746 mmHg 79%
    08:00 +19°C° 0 mm 2 m/S 746 mmHg 73%
    09:00 +21°C° 0 mm 2 m/S 746 mmHg 67%
    10:00 +21°C° 0 mm 2 m/S 745 mmHg 65%
    11:00 +22°C° 0 mm 3 m/S 745 mmHg 63%
    12:00 +24°C° 0 mm 3 m/S 745 mmHg 62%
    13:00 +24°C° 0 mm 3 m/S 745 mmHg 62%
    14:00 +25°C° 0 mm 3 m/S 745 mmHg 63%
    15:00 +25°C° 0 mm 3 m/S 745 mmHg 63%
    16:00 +24°C° 0 mm 3 m/S 745 mmHg 67%
    17:00 +24°C° 0 mm 3 m/S 745 mmHg 71%
    18:00 +23°C° 0 mm 2 m/S 745 mmHg 75%
    19:00 +20°C° 0 mm 2 m/S 745 mmHg 79%
    20:00 +18°C° 0 mm 2 m/S 745 mmHg 83%
    21:00 +17°C° 0 mm 2 m/S 745 mmHg 86%
    22:00 +16°C° 0 mm 2 m/S 745 mmHg 88%
    23:00 +15°C° 0 mm 2 m/S 745 mmHg 89%

    übermorgen, 27 Juni, Mittwoch

    Zeit Temperatur Niederschläge Wind Luftdruck Luftfeuchtigkeit
    00:00 +15°C° 0 mm 2 m/S 745 mmHg 91%
    01:00 +14°C° 0 mm 2 m/S 745 mmHg 92%
    02:00 +14°C° 0 mm 2 m/S 744 mmHg 93%
    03:00 +14°C° 0 mm 2 m/S 744 mmHg 94%
    04:00 +15°C° 0 mm 2 m/S 745 mmHg 91%
    05:00 +16°C° 0 mm 2 m/S 745 mmHg 88%
    06:00 +17°C° 0 mm 3 m/S 745 mmHg 85%
    07:00 +19°C° 0 mm 3 m/S 745 mmHg 79%
    08:00 +20°C° 0 mm 3 m/S 745 mmHg 73%
    09:00 +22°C° 0 mm 4 m/S 745 mmHg 67%
    10:00 +23°C° 0 mm 4 m/S 745 mmHg 63%
    11:00 +25°C° 0 mm 4 m/S 744 mmHg 60%
    12:00 +25°C° 0 mm 5 m/S 744 mmHg 56%
    13:00 +25°C° 0 mm 5 m/S 744 mmHg 55%
    14:00 +25°C° 0 mm 5 m/S 744 mmHg 54%
    15:00 +25°C° 0 mm 5 m/S 743 mmHg 54%
    16:00 +23°C° 0 mm 4 m/S 743 mmHg 58%
    17:00 +22°C° 0 mm 4 m/S 743 mmHg 62%
    18:00 +21°C° 0 mm 3 m/S 743 mmHg 67%
    19:00 +20°C° 0 mm 3 m/S 743 mmHg 69%
    20:00 +18°C° 0 mm 3 m/S 743 mmHg 71%
    21:00 +17°C° 0 mm 3 m/S 744 mmHg 73%
    22:00 +16°C° 0 mm 3 m/S 744 mmHg 77%
    23:00 +14°C° 0 mm 3 m/S 743 mmHg 80%

    28 Juni, Donnerstag

    Zeit Temperatur Niederschläge Wind Luftdruck Luftfeuchtigkeit
    00:00 +13°C° 0 mm 3 m/S 743 mmHg 83%
    01:00 +13°C° 0 mm 3 m/S 743 mmHg 86%
    02:00 +13°C° 0 mm 3 m/S 743 mmHg 88%
    03:00 +12°C° 0 mm 3 m/S 743 mmHg 91%
    04:00 +13°C° 0 mm 3 m/S 743 mmHg 88%
    05:00 +16°C° 0 mm 3 m/S 743 mmHg 84%
    06:00 +17°C° 0 mm 3 m/S 743 mmHg 81%
    07:00 +18°C° 0 mm 4 m/S 743 mmHg 76%
    08:00 +20°C° 0 mm 4 m/S 743 mmHg 71%
    09:00 +21°C° 0 mm 4 m/S 743 mmHg 65%
    10:00 +22°C° 0 mm 4 m/S 742 mmHg 63%
    11:00 +23°C° 0 mm 4 m/S 742 mmHg 60%
    12:00 +25°C° 0 mm 5 m/S 742 mmHg 58%
    13:00 +25°C° 0 mm 4 m/S 742 mmHg 59%
    14:00 +25°C° 0 mm 4 m/S 741 mmHg 61%
    15:00 +25°C° 0 mm 4 m/S 741 mmHg 62%
    16:00 +23°C° 0,1 mm 4 m/S 741 mmHg 69%
    17:00 +22°C° 0,1 mm 3 m/S 741 mmHg 75%
    18:00 +21°C° 0,1 mm 2 m/S 741 mmHg 81%
    19:00 +20°C° 0 mm 2 m/S 741 mmHg 82%
    20:00 +19°C° 0 mm 2 m/S 741 mmHg 84%
    21:00 +18°C° 0 mm 2 m/S 741 mmHg 85%
    22:00 +18°C° 0 mm 2 m/S 741 mmHg 86%
    23:00 +17°C° 0 mm 2 m/S 740 mmHg 88%

    29 Juni, Freitag

    Zeit Temperatur Niederschläge Wind Luftdruck Luftfeuchtigkeit
    00:00 +17°C° 0 mm 3 m/S 740 mmHg 89%
    01:00 +16°C° 0 mm 3 m/S 740 mmHg 90%
    02:00 +16°C° 0 mm 3 m/S 740 mmHg 91%
    03:00 +16°C° 0 mm 3 m/S 740 mmHg 92%
    04:00 +17°C° 0 mm 3 m/S 740 mmHg 89%
    05:00 +17°C° 0 mm 4 m/S 740 mmHg 86%
    06:00 +18°C° 0 mm 4 m/S 740 mmHg 83%
    07:00 +19°C° 0 mm 5 m/S 740 mmHg 78%
    08:00 +21°C° 0 mm 5 m/S 740 mmHg 73%
    09:00 +22°C° 0 mm 5 m/S 740 mmHg 68%
    10:00 +22°C° 0 mm 5 m/S 740 mmHg 71%
    11:00 +22°C° 0 mm 4 m/S 739 mmHg 73%
    12:00 +22°C° 0 mm 4 m/S 739 mmHg 75%
    13:00 +22°C° 0 mm 3 m/S 739 mmHg 76%
    14:00 +22°C° 0 mm 3 m/S 739 mmHg 77%
    15:00 +22°C° 0 mm 3 m/S 739 mmHg 78%
    16:00 +23°C° 0 mm 2 m/S 739 mmHg 79%
    17:00 +23°C° 0 mm 2 m/S 739 mmHg 79%
    18:00 +23°C° 0 mm 2 m/S 739 mmHg 80%
    19:00 +21°C° 0 mm 1 m/S 740 mmHg 83%
    20:00 +20°C° 0 mm 1 m/S 740 mmHg 87%
    21:00 +18°C° 0 mm 1 m/S 740 mmHg 90%
    22:00 +18°C° 0 mm 1 m/S 740 mmHg 91%
    23:00 +18°C° 0 mm 1 m/S 740 mmHg 91%

    30 Juni, Samstag

    Zeit Temperatur Niederschläge Wind Luftdruck Luftfeuchtigkeit
    00:00 +16°C° 0 mm 1 m/S 740 mmHg 92%
    01:00 +16°C° 0 mm 2 m/S 740 mmHg 92%
    02:00 +15°C° 0 mm 2 m/S 740 mmHg 93%
    03:00 +15°C° 0 mm 2 m/S 741 mmHg 93%
    04:00 +16°C° 0 mm 2 m/S 741 mmHg 90%
    05:00 +17°C° 0 mm 2 m/S 741 mmHg 87%
    06:00 +18°C° 0 mm 3 m/S 741 mmHg 83%
    07:00 +20°C° 0 mm 3 m/S 741 mmHg 77%
    08:00 +22°C° 0 mm 3 m/S 742 mmHg 70%
    09:00 +24°C° 0 mm 3 m/S 742 mmHg 64%
    10:00 +25°C° 0 mm 3 m/S 742 mmHg 60%
    11:00 +26°C° 0 mm 3 m/S 741 mmHg 57%
    12:00 +27°C° 0 mm 3 m/S 741 mmHg 53%
    13:00 +28°C° 0 mm 3 m/S 741 mmHg 53%
    14:00 +28°C° 0 mm 4 m/S 741 mmHg 53%
    15:00 +28°C° 0 mm 4 m/S 741 mmHg 53%
    16:00 +27°C° 0 mm 3 m/S 741 mmHg 58%
    17:00 +26°C° 0 mm 3 m/S 741 mmHg 63%
    18:00 +25°C° 0 mm 2 m/S 741 mmHg 68%
    19:00 +24°C° 0 mm 2 m/S 741 mmHg 70%
    20:00 +21°C° 0 mm 2 m/S 742 mmHg 73%
    21:00 +20°C° 0 mm 2 m/S 742 mmHg 76%
    22:00 +19°C° 0 mm 3 m/S 742 mmHg 77%
    23:00 +19°C° 0 mm 3 m/S 742 mmHg 79%
    Mehr zeigen